TimeEDT,TemperatureF,Dew PointF,Humidity,Sea Level PressureIn,VisibilityMPH,Wind Direction,Wind SpeedMPH,Gust SpeedMPH,PrecipitationIn,Events,Conditions,WindDirDegrees,DateUTC
12:53 AM,39.0,39.0,100,30.18,10.0,Calm,Calm,-,N/A,,Scattered Clouds,0,2012-10-19 04:53:00
1:53 AM,42.1,41.0,96,30.16,10.0,Calm,Calm,-,N/A,,Mostly Cloudy,0,2012-10-19 05:53:00
2:53 AM,42.1,41.0,96,30.15,7.0,Calm,Calm,-,N/A,,Mostly Cloudy,0,2012-10-19 06:53:00
3:46 AM,44.6,42.8,93,30.15,10.0,Calm,Calm,-,N/A,,Mostly Cloudy,0,2012-10-19 07:46:00
3:53 AM,44.1,43.0,96,30.15,10.0,Calm,Calm,-,N/A,,Mostly Cloudy,0,2012-10-19 07:53:00
4:20 AM,41.0,41.0,100,30.17,3.0,Calm,Calm,-,N/A,,Overcast,0,2012-10-19 08:20:00
4:25 AM,39.2,39.2,100,30.17,1.8,Calm,Calm,-,N/A,,Overcast,0,2012-10-19 08:25:00
4:35 AM,41.0,39.2,93,30.17,4.0,Calm,Calm,-,N/A,,Overcast,0,2012-10-19 08:35:00
4:42 AM,42.8,42.8,100,30.17,3.0,Calm,Calm,-,N/A,,Overcast,0,2012-10-19 08:42:00
4:53 AM,43.0,43.0,100,30.17,4.0,Calm,Calm,-,N/A,,Overcast,0,2012-10-19 08:53:00
5:38 AM,44.6,42.8,93,30.17,2.5,North,3.5,-,N/A,,Overcast,10,2012-10-19 09:38:00
5:53 AM,43.0,42.1,97,30.17,1.5,NE,3.5,-,N/A,,Overcast,50,2012-10-19 09:53:00
6:00 AM,42.8,42.8,100,30.17,3.0,Calm,Calm,-,N/A,,Mostly Cloudy,0,2012-10-19 10:00:00
6:35 AM,44.6,42.8,93,30.16,7.0,Calm,Calm,-,N/A,,Overcast,0,2012-10-19 10:35:00
6:53 AM,45.0,44.1,97,30.16,5.0,Calm,Calm,-,N/A,,Overcast,0,2012-10-19 10:53:00
7:20 AM,44.6,44.6,100,30.15,10.0,Calm,Calm,-,N/A,,Scattered Clouds,0,2012-10-19 11:20:00
7:53 AM,46.9,46.0,97,30.17,10.0,Calm,Calm,-,N/A,,Scattered Clouds,0,2012-10-19 11:53:00
8:36 AM,50.0,48.2,94,30.18,10.0,Calm,Calm,-,N/A,,Mostly Cloudy,0,2012-10-19 12:36:00
8:53 AM,50.0,48.9,96,30.18,10.0,Calm,Calm,-,N/A,,Mostly Cloudy,0,2012-10-19 12:53:00
9:53 AM,52.0,50.0,93,30.18,10.0,Calm,Calm,-,N/A,,Mostly Cloudy,0,2012-10-19 13:53:00
10:53 AM,57.9,50.0,75,30.16,10.0,SE,11.5,-,N/A,,Mostly Cloudy,130,2012-10-19 14:53:00
11:53 AM,60.1,50.0,69,30.15,10.0,SE,12.7,17.3,N/A,,Mostly Cloudy,140,2012-10-19 15:53:00
12:53 PM,60.1,48.0,64,30.11,10.0,SE,17.3,21.9,N/A,,Mostly Cloudy,140,2012-10-19 16:53:00
1:53 PM,60.1,50.0,69,30.11,10.0,SE,10.4,-,N/A,,Mostly Cloudy,130,2012-10-19 17:53:00
2:53 PM,61.0,48.9,64,30.09,10.0,ESE,11.5,-,N/A,,Mostly Cloudy,120,2012-10-19 18:53:00
3:53 PM,59.0,48.0,67,30.08,10.0,ESE,11.5,17.3,N/A,,Mostly Cloudy,120,2012-10-19 19:53:00
4:53 PM,57.9,50.0,75,30.06,10.0,ESE,11.5,19.6,0.00,Rain,Light Rain,110,2012-10-19 20:53:00
5:53 PM,57.0,52.0,83,30.04,10.0,ESE,9.2,-,0.00,,Overcast,120,2012-10-19 21:53:00
6:53 PM,57.0,54.0,89,30.04,10.0,ESE,10.4,-,N/A,,Overcast,120,2012-10-19 22:53:00
7:14 PM,57.2,53.6,88,30.02,8.0,ESE,13.8,-,0.00,Rain,Light Rain,120,2012-10-19 23:14:00
7:53 PM,57.0,55.0,93,29.99,10.0,ESE,16.1,23.0,0.00,Rain,Light Rain,120,2012-10-19 23:53:00
8:43 PM,57.2,55.4,94,29.97,9.0,ESE,17.3,24.2,0.00,Rain,Light Rain,120,2012-10-20 00:43:00
8:53 PM,57.0,55.0,93,29.96,2.0,ESE,20.7,25.3,0.01,Rain,Light Rain,120,2012-10-20 00:53:00
9:11 PM,57.2,55.4,94,29.94,6.0,ESE,17.3,24.2,0.01,Rain,Light Rain,110,2012-10-20 01:11:00
9:21 PM,57.2,55.4,94,29.93,2.5,ESE,17.3,27.6,0.01,Rain,Light Rain,120,2012-10-20 01:21:00
9:30 PM,57.2,55.4,94,29.93,4.0,ESE,19.6,26.5,0.02,Rain,Light Rain,120,2012-10-20 01:30:00
9:53 PM,57.0,55.9,96,29.92,6.0,ESE,16.1,23.0,0.03,Rain,Light Rain,120,2012-10-20 01:53:00
10:53 PM,57.9,57.0,97,29.88,6.0,ESE,13.8,23.0,0.03,Rain,Light Rain,120,2012-10-20 02:53:00
11:53 PM,59.0,57.9,96,29.85,7.0,SE,9.2,-,0.08,Rain,Light Rain,130,2012-10-20 03:53:00